Location: Pedholt
(56.0260°N, 10.2097°E)
Time: 12:40:08
(UTC+00:00)

ARIANE 5 R/B - Visible Passes

Search period start: 27 October 2020 00:00
Search period end: 06 November 2020 00:00
Orbit: 748 x 796 km, 98.6° (Epoch: 26 October)

Date Brightness Start Highest point End Pass type
(mag) Time Alt. Az. Time Alt. Az. Time Alt. Az.
27 Oct 4.9 01:18:17 10° NE 01:20:24 19° ENE 01:20:24 19° ENE visible
27 Oct 2.9 02:56:53 10° NNE 03:00:44 51° N 03:00:44 51° N visible
27 Oct 4.0 04:37:01 10° N 04:40:15 18° NW 04:41:04 17° WNW visible
28 Oct 5.4 00:44:37 10° NE 00:45:00 11° ENE 00:45:00 11° ENE visible
28 Oct 3.6 02:21:59 10° NNE 02:25:19 41° NE 02:25:19 41° NE visible
28 Oct 3.5 04:01:36 10° N 04:05:39 27° NW 04:05:39 27° NW visible
29 Oct 4.4 01:47:16 10° NNE 01:49:54 26° NE 01:49:54 26° NE visible
29 Oct 3.1 03:26:25 10° N 03:30:13 40° NNW 03:30:13 40° NNW visible
29 Oct 4.3 05:07:14 10° NNW 05:09:10 12° NW 05:10:34 11° WNW visible
30 Oct 5.1 01:12:54 10° NE 01:14:29 16° NE 01:14:29 16° NE visible
30 Oct 3.2 02:51:22 10° NNE 02:54:48 44° N 02:54:48 44° N visible
30 Oct 3.9 04:31:24 10° N 04:34:50 19° NW 04:35:09 19° NW visible
31 Oct 3.9 02:16:29 10° NNE 02:19:24 34° NE 02:19:24 34° NE visible
31 Oct 3.5 03:56:02 10° N 03:59:44 29° NW 03:59:44 29° NW visible
01 Nov 4.7 01:41:49 10° NNE 01:43:59 22° NE 01:43:59 22° NE visible
01 Nov 3.3 03:20:52 10° N 03:24:19 38° NNW 03:24:19 38° NNW visible
01 Nov 4.2 05:01:29 10° NNW 05:03:46 13° NW 05:04:38 13° NW visible
02 Nov 5.2 01:07:31 10° NE 01:08:34 14° NE 01:08:34 14° NE visible
02 Nov 3.6 02:45:51 10° NNE 02:48:53 38° NNE 02:48:53 38° NNE visible
02 Nov 3.9 04:25:47 10° N 04:29:13 20° NW 04:29:13 20° NW visible
03 Nov 4.2 02:11:00 10° NNE 02:13:29 28° NE 02:13:29 28° NE visible
03 Nov 3.5 03:50:27 10° N 03:53:48 29° NW 03:53:48 29° NW visible
04 Nov 4.9 01:36:22 10° NNE 01:38:04 19° NE 01:38:04 19° NE visible
04 Nov 3.5 03:15:19 10° N 03:18:23 35° N 03:18:23 35° N visible
04 Nov 4.2 04:55:47 10° NNW 04:58:22 14° NW 04:58:43 14° NW visible
05 Nov 5.4 01:02:10 10° NE 01:02:39 12° NE 01:02:39 12° NE visible
05 Nov 3.9 02:40:19 10° NNE 02:42:59 32° NNE 02:42:59 32° NNE visible
05 Nov 3.9 04:20:11 10° N 04:23:18 21° NW 04:23:18 21° NW visible
